CWLEESTJE Weather Reports


time (UTC)temp
F
wind
direction
speed
knots
gust
knots
rain 1hr
in
rain 24hr
in
rain mn
in
humidity
%
barometer
mb
20260902072535 61 258 6.1 9.6 0.00 0.00 0.00 91
20260902071539 60 250 6.1 8.7 0.00 0.00 0.00 91
20260902070523 59 213 6.1 8.7 0.00 0.00 0.00 91
20260902065535 59 234 6.1 9.6 0.00 0.00 0.00 92
20260902064547 58 213 6.1 10.4 0.00 0.00 0.00 92
20260902063532 58 220 7.0 9.6 0.00 0.00 0.00 92
20260902062531 57 215 6.1 8.7 0.00 0.00 0.00 92
20260902061604 57 202 6.1 8.7 0.00 0.00 0.00 92
20260902060536 57 213 7.0 9.6 0.00 0.00 0.00 92
20260902055549 57 221 6.1 8.7 0.00 0.00 0.00 92
20260902054533 57 231 7.0 8.7 0.00 0.00 0.00 92
20260902053537 56 212 7.0 9.6 0.00 0.00 0.00 92
20260902052530 56 215 7.0 9.6 0.00 0.00 0.00 92
20260902051531 56 213 6.1 8.7 0.00 0.00 0.00 92
20260902050543 56 198 6.1 8.7 0.00 0.00 0.00 91
20260902045555 55 220 4.3 6.1 0.00 0.00 0.00 91
20260902044537 55 230 4.3 8.7 0.00 0.00 0.00 91
20260902043531 55 209 6.1 7.8 0.00 0.00 0.00 91
20260902042536 55 206 6.1 7.8 0.00 0.00 0.00 91
20260902041528 55 207 5.2 7.8 0.00 0.00 0.00 91
20260902040529 55 215 6.1 7.8 0.00 0.00 0.00 91
20260902035601 55 234 6.1 8.7 0.00 0.00 0.00 91
20260902034525 55 205 6.1 7.8 0.00 0.00 0.00 91
20260902033537 56 211 5.2 7.8 0.00 0.00 0.00 91
20260902032522 56 221 6.1 7.8 0.00 0.00 0.00 91
20260902031536 56 213 5.2 7.0 0.00 0.00 0.00 90
20260902030540 56 205 5.2 6.1 0.00 0.00 0.00 90
20260902025532 56 205 5.2 7.0 0.00 0.00 0.00 90
20260902024534 56 209 5.2 7.0 0.00 0.00 0.00 90
20260902023546 56 219 5.2 7.8 0.00 0.00 0.00 90
20260902022530 56 213 5.2 6.1 0.00 0.00 0.00 90
20260902021543 56 214 5.2 7.0 0.00 0.00 0.00 90
20260902020527 56 215 4.3 6.1 0.00 0.00 0.00 90
20260902015540 56 235 4.3 6.1 0.00 0.00 0.00 89
20260902014523 56 209 3.5 6.1 0.00 0.00 0.00 89
20260902013551 56 220 4.3 6.1 0.00 0.00 0.00 90
20260902012535 56 205 5.2 7.8 0.00 0.00 0.00 90
20260902011549 57 219 6.1 7.8 0.00 0.00 0.00 90
20260902010600 56 207 6.1 7.0 0.00 0.00 0.00 90
20260902005523 56 205 5.2 7.0 0.00 0.00 0.00 89
20260902004537 56 207 5.2 6.1 0.00 0.00 0.00 89
20260902003540 56 213 6.1 7.0 0.00 0.00 0.00 89
20260902002529 56 211 3.5 6.1 0.00 0.00 0.00 89
20260902001531 57 212 5.2 6.1 0.00 0.00 0.00 89
20260902000544 57 213 5.2 7.0 0.00 0.00 0.00 89
20260901235528 57 217 5.2 7.8 0.00 0.00 0.00 89
20260901234601 56 236 5.2 6.1 0.00 0.00 0.00 89
20260901233524 56 235 4.3 5.2 0.00 0.00 0.00 89
20260901232536 56 219 3.5 5.2 0.00 0.00 0.00 89
20260901231536 55 214 3.5 4.3 0.00 0.00 0.00 88
20260901230530 56 213 2.6 4.3 0.00 0.00 0.00 88
20260901225534 56 213 4.3 4.3 0.00 0.00 0.00 88
20260901224548 56 213 4.3 4.3 0.00 0.00 0.00 88
20260901223532 56 214 3.5 4.3 0.00 0.00 0.00 87
20260901222545 56 215 3.5 4.3 0.00 0.00 0.00 87
20260901221528 56 215 4.3 5.2 0.00 0.00 0.00 87
20260901220532 57 218 5.2 5.2 0.00 0.00 0.00 87
20260901215525 57 221 4.3 6.1 0.00 0.00 0.00 87
20260901214526 57 223 4.3 7.0 0.00 0.00 0.00 87
20260901213538 57 229 5.2 6.1 0.00 0.00 0.00 87
20260901212613 57 226 4.3 6.1 0.00 0.00 0.00 86
20260901211556 57 226 5.2 6.1 0.00 0.00 0.00 86
20260901210528 57 223 5.2 6.1 0.00 0.00 0.00 86
20260901205531 58 247 5.2 6.1 0.00 0.00 0.00 86
20260901204523 58 255 5.2 6.1 0.00 0.00 0.00 85
20260901203523 59 271 4.3 5.2 0.00 0.00 0.00 85
20260901202535 59 272 2.6 6.1 0.00 0.00 0.00 85
20260901201538 59 273 4.3 5.2 0.00 0.00 0.00 85
20260901200531 59 277 4.3 6.1 0.00 0.00 0.00 85
20260901195535 59 328 3.5 4.3 0.00 0.00 0.00 85
20260901194549 59 328 1.7 3.5 0.00 0.00 0.00 85
20260901193532 59 328 3.5 4.3 0.00 0.00 0.00 84
20260901192541 60 328 2.6 3.5 0.00 0.00 0.00 83
20260901191525 60 328 2.6 5.2 0.00 0.00 0.00 82
20260901190528 61 329 0.0 1.7 0.00 0.00 0.00 81
20260901185541 61 329 0.0 1.7 0.00 0.00 0.00 79
20260901184523 62 329 0.0 1.7 0.00 0.00 0.00 78
20260901183538 63 329 0.0 0.9 0.00 0.00 0.00 77
20260901182541 63 329 0.0 0.9 0.00 0.00 0.00 76
20260901181534 64 329 0.0 1.7 0.00 0.00 0.00 75
20260901180603 65 329 0.0 3.5 0.00 0.00 0.00 74
20260901175525 65 329 1.7 3.5 0.00 0.00 0.00 74
20260901174528 66 329 2.6 7.0 0.00 0.00 0.00 73
20260901173601 67 342 4.3 7.8 0.00 0.00 0.00 72
20260901172533 67 334 4.3 7.8 0.00 0.00 0.00 71
20260901171538 68 329 5.2 8.7 0.00 0.00 0.00 70
20260901170530 68 323 4.3 9.6 0.00 0.00 0.00 71
20260901165531 68 322 5.2 8.7 0.00 0.00 0.00 70
20260901164544 70 324 3.5 7.0 0.00 0.00 0.00 69
20260901163548 71 304 7.0 10.4 0.00 0.00 0.00 67
20260901162541 71 315 6.1 9.6 0.00 0.00 0.00 67
20260901161525 71 284 6.1 13.0 0.00 0.00 0.00 65
20260901160538 71 284 5.2 13.0 0.00 0.00 0.00 64
20260901155553 72 267 10.4 15.6 0.00 0.00 0.00 60
20260901154535 71 272 7.8 11.3 0.00 0.00 0.00 65
20260901153535 71 269 7.0 12.2 0.00 0.00 0.00 65
20260901152547 71 273 8.7 13.0 0.00 0.00 0.00 65
20260901151559 71 275 6.1 9.6 0.00 0.00 0.00 66
20260901150552 72 298 7.0 11.3 0.00 0.00 0.00 65
20260901145536 72 254 7.8 13.0 0.00 0.00 0.00 64
20260901144539 73 279 6.1 11.3 0.00 0.00 0.00 65
20260901143532 73 279 7.0 11.3 0.00 0.00 0.00 65
20260901142533 73 298 7.0 9.6 0.00 0.00 0.00 67
20260901141545 72 287 7.0 12.2 0.00 0.00 0.00 66
20260901140549 72 258 5.2 10.4 0.00 0.00 0.00 67
20260901135541 72 325 6.1 10.4 0.00 0.00 0.00 68
20260901134525 71 285 6.1 8.7 0.00 0.00 0.00 70
20260901133539 71 317 6.1 9.6 0.00 0.00 0.00 68
20260901132524 71 348 5.2 8.7 0.00 0.00 0.00 71
20260901131554 71 275 6.1 11.3 0.00 0.00 0.00 70
20260901130545 71 289 7.0 12.2 0.00 0.00 0.00 71
20260901125530 71 335 7.0 10.4 0.00 0.00 0.00 70
20260901124544 71 318 7.0 10.4 0.00 0.00 0.00 69
20260901123527 70 335 8.7 11.3 0.00 0.00 0.00 71
20260901122531 70 325 4.3 9.6 0.00 0.00 0.00 70
20260901121604 70 336 6.1 9.6 0.00 0.00 0.00 72
20260901120533 70 304 7.0 11.3 0.00 0.00 0.00 72
20260901115537 69 321 6.1 12.2 0.00 0.00 0.00 72
20260901114551 70 322 5.2 9.6 0.00 0.00 0.00 72
20260901113535 70 350 6.1 9.6 0.00 0.00 0.00 73
20260901112548 70 278 7.8 13.0 0.00 0.00 0.00 73
20260901111532 69 316 8.7 13.9 0.00 0.00 0.00 74
20260901110547 70 301 8.7 12.2 0.00 0.00 0.00 72
20260901105530 69 325 5.2 10.4 0.00 0.08 0.00 73
20260901104531 70 321 7.8 11.3 0.00 0.08 0.00 73
20260901103524 70 306 7.0 11.3 0.00 0.08 0.00 71
20260901102529 71 319 7.0 13.0 0.00 0.08 0.00 71
20260901101543 70 315 7.0 10.4 0.00 0.08 0.00 73
20260901100527 69 292 6.1 11.3 0.00 0.08 0.00 75
20260901095541 68 291 6.1 12.2 0.00 0.28 0.00 76
20260901094525 69 325 6.1 12.2 0.00 0.28 0.00 74
20260901093537 69 310 8.7 13.9 0.00 0.28 0.00 76
20260901092606 68 313 6.1 9.6 0.00 0.28 0.00 78
20260901091549 67 301 6.1 9.6 0.00 0.28 0.00 77
20260901090601 68 302 5.2 8.7 0.00 0.28 0.00 77
20260901085523 68 348 5.2 9.6 0.00 0.59 0.00 77
20260901084537 68 304 4.3 10.4 0.00 0.59 0.00 79
20260901083551 67 329 6.1 9.6 0.00 0.59 0.00 81
20260901082529 67 288 7.0 8.7 0.00 0.59 0.00 82
20260901081543 66 348 5.2 8.7 0.00 0.59 0.00 84
20260901080528 67 277 6.1 7.8 0.00 0.59 0.00 84
20260901075537 65 290 5.2 7.8 0.00 0.79 0.00 87
20260901074542 64 281 6.1 8.7 0.00 0.79 0.00 88
20260901073535 63 254 6.1 7.8 0.00 0.79 0.00 90